Time,TemperatureF,DewpointF,PressureIn,WindDirection,WindDirectionDegrees,WindSpeedMPH,WindSpeedGustMPH,Humidity,HourlyPrecipIn,Conditions,Clouds,dailyrainin,SoftwareType,DateUTC
2013-04-22 00:00:00,52.3,50.7,30.11,NNE,22,0.0,-999.0,94,-99.99,,,0.00,Acu-Link.com,2013-04-22 05:00:00,
2013-04-22 00:15:00,52.2,51.6,30.11,North,0,0.0,-999.0,98,-99.99,,,0.00,Acu-Link.com,2013-04-22 05:15:00,
2013-04-22 00:30:00,52.0,51.4,30.10,NNE,22,0.0,-999.0,98,-99.99,,,0.00,Acu-Link.com,2013-04-22 05:30:00,
2013-04-22 00:46:00,51.8,51.3,30.10,NNE,22,0.0,-999.0,98,-99.99,,,0.00,Acu-Link.com,2013-04-22 05:46:00,
2013-04-22 01:01:00,51.6,51.1,30.10,NNE,22,1.6,-999.0,98,-99.99,,,0.00,Acu-Link.com,2013-04-22 06:01:00,
2013-04-22 01:16:00,51.3,50.4,30.11,NNW,337,0.0,-999.0,97,-99.99,,,0.00,Acu-Link.com,2013-04-22 06:16:00,
2013-04-22 01:32:00,50.7,50.4,30.10,NNE,22,0.0,-999.0,99,-99.99,,,0.00,Acu-Link.com,2013-04-22 06:32:00,
2013-04-22 01:47:00,50.7,50.4,30.10,NW,315,0.0,-999.0,99,-99.99,,,0.00,Acu-Link.com,2013-04-22 06:47:00,
2013-04-22 02:02:00,50.5,50.3,30.09,ENE,67,0.0,-999.0,99,-99.99,,,0.00,Acu-Link.com,2013-04-22 07:02:00,
2013-04-22 02:17:00,49.8,49.6,30.09,West,270,0.0,-999.0,99,-99.99,,,0.00,Acu-Link.com,2013-04-22 07:17:00,
2013-04-22 02:33:00,50.0,49.7,30.09,NNW,337,2.2,-999.0,99,-99.99,,,0.00,Acu-Link.com,2013-04-22 07:33:00,
2013-04-22 02:48:00,50.0,49.7,30.09,NNE,22,1.6,-999.0,99,-99.99,,,0.00,Acu-Link.com,2013-04-22 07:48:00,
2013-04-22 03:03:00,49.8,49.6,30.08,North,0,2.2,-999.0,99,-99.99,,,0.00,Acu-Link.com,2013-04-22 08:03:00,
2013-04-22 03:19:00,49.6,49.4,30.08,NNW,337,0.0,-999.0,99,-99.99,,,0.00,Acu-Link.com,2013-04-22 08:19:00,
2013-04-22 03:34:00,49.6,49.4,30.08,North,0,1.6,-999.0,99,-99.99,,,0.00,Acu-Link.com,2013-04-22 08:34:00,
2013-04-22 03:49:00,49.5,49.2,30.08,North,0,1.1,-999.0,99,-99.99,,,0.00,Acu-Link.com,2013-04-22 08:49:00,
2013-04-22 04:05:00,49.5,49.2,30.08,NNE,22,0.0,-999.0,99,-99.99,,,0.00,Acu-Link.com,2013-04-22 09:05:00,
2013-04-22 04:20:00,49.3,49.0,30.08,North,0,2.7,-999.0,99,-99.99,,,0.00,Acu-Link.com,2013-04-22 09:20:00,
2013-04-22 04:35:00,49.1,48.8,30.08,North,0,1.6,-999.0,99,-99.99,,,0.00,Acu-Link.com,2013-04-22 09:35:00,
2013-04-22 04:50:00,48.9,48.7,30.08,NE,45,1.6,-999.0,99,-99.99,,,0.00,Acu-Link.com,2013-04-22 09:50:00,
2013-04-22 05:05:00,48.7,48.5,30.07,NNE,22,2.2,-999.0,99,-99.99,,,0.00,Acu-Link.com,2013-04-22 10:05:00,
2013-04-22 05:21:00,48.7,48.5,30.08,NNE,22,2.2,-999.0,99,-99.99,,,0.00,Acu-Link.com,2013-04-22 10:21:00,
2013-04-22 05:36:00,48.7,48.5,30.08,NNE,22,2.2,-999.0,99,-99.99,,,0.00,Acu-Link.com,2013-04-22 10:36:00,
2013-04-22 05:51:00,48.4,48.1,30.08,NE,45,0.0,-999.0,99,-99.99,,,0.00,Acu-Link.com,2013-04-22 10:51:00,
2013-04-22 06:06:00,48.2,47.9,30.07,NNE,22,1.6,-999.0,99,-99.99,,,0.00,Acu-Link.com,2013-04-22 11:06:00,
2013-04-22 06:22:00,48.2,47.9,30.08,NNE,22,2.2,-999.0,99,-99.99,,,0.00,Acu-Link.com,2013-04-22 11:22:00,
2013-04-22 06:37:00,48.2,47.9,30.08,North,0,0.0,-999.0,99,-99.99,,,0.00,Acu-Link.com,2013-04-22 11:37:00,
2013-04-22 06:52:00,48.0,47.8,30.07,North,0,0.0,-999.0,99,-99.99,,,0.00,Acu-Link.com,2013-04-22 11:52:00,
2013-04-22 07:08:00,47.8,47.6,30.09,ESE,112,0.0,-999.0,99,-99.99,,,0.00,Acu-Link.com,2013-04-22 12:08:00,
2013-04-22 07:23:00,48.7,48.5,30.08,ESE,112,0.0,-999.0,99,-99.99,,,0.00,Acu-Link.com,2013-04-22 12:23:00,
2013-04-22 07:38:00,49.5,49.2,30.09,South,180,0.0,-999.0,99,-99.99,,,0.00,Acu-Link.com,2013-04-22 12:38:00,
2013-04-22 07:53:00,50.4,50.1,30.09,NE,45,0.0,-999.0,99,-99.99,,,0.00,Acu-Link.com,2013-04-22 12:53:00,
2013-04-22 08:08:00,51.8,51.5,30.09,ENE,67,2.2,-999.0,99,-99.99,,,0.00,Acu-Link.com,2013-04-22 13:08:00,
2013-04-22 08:24:00,54.0,52.3,30.09,NE,45,3.1,-999.0,94,-99.99,,,0.00,Acu-Link.com,2013-04-22 13:24:00,
2013-04-22 08:39:00,59.4,53.9,30.10,NE,45,3.1,-999.0,82,-99.99,,,0.00,Acu-Link.com,2013-04-22 13:39:00,
2013-04-22 08:54:00,63.5,54.3,30.10,NNE,22,3.8,-999.0,72,-99.99,,,0.00,Acu-Link.com,2013-04-22 13:54:00,
2013-04-22 09:10:00,66.0,56.3,30.10,NE,45,2.2,-999.0,71,-99.99,,,0.00,Acu-Link.com,2013-04-22 14:10:00,
2013-04-22 09:25:00,69.1,55.1,30.10,NE,45,1.6,-999.0,61,-99.99,,,0.00,Acu-Link.com,2013-04-22 14:25:00,
2013-04-22 09:40:00,67.1,55.4,30.11,NNW,337,4.7,-999.0,66,-99.99,,,0.00,Acu-Link.com,2013-04-22 14:40:00,
2013-04-22 09:55:00,67.3,56.3,30.11,NNW,337,3.8,-999.0,68,-99.99,,,0.00,Acu-Link.com,2013-04-22 14:55:00,
2013-04-22 10:11:00,68.9,57.1,30.11,ESE,112,1.6,-999.0,66,-99.99,,,0.00,Acu-Link.com,2013-04-22 15:11:00,
2013-04-22 10:26:00,71.4,55.9,30.10,North,0,3.1,-999.0,58,-99.99,,,0.00,Acu-Link.com,2013-04-22 15:26:00,
2013-04-22 10:41:00,72.3,54.2,30.11,North,0,1.6,-999.0,53,-99.99,,,0.00,Acu-Link.com,2013-04-22 15:41:00,
2013-04-22 10:56:00,73.8,54.5,30.11,NE,45,4.7,-999.0,51,-99.99,,,0.00,Acu-Link.com,2013-04-22 15:56:00,
2013-04-22 11:11:00,74.1,54.8,30.11,SW,225,3.8,-999.0,51,-99.99,,,0.00,Acu-Link.com,2013-04-22 16:11:00,
2013-04-22 11:27:00,74.7,53.7,30.11,SSE,157,2.2,-999.0,48,-99.99,,,0.00,Acu-Link.com,2013-04-22 16:27:00,
2013-04-22 11:42:00,74.7,51.9,30.10,ESE,112,3.8,-999.0,45,-99.99,,,0.00,Acu-Link.com,2013-04-22 16:42:00,
2013-04-22 11:57:00,75.4,55.4,30.10,ENE,67,2.2,-999.0,50,-99.99,,,0.00,Acu-Link.com,2013-04-22 16:57:00,
2013-04-22 12:12:00,75.7,52.9,30.09,ESE,112,1.6,-999.0,45,-99.99,,,0.00,Acu-Link.com,2013-04-22 17:12:00,
2013-04-22 12:27:00,75.9,53.6,30.08,WNW,292,3.8,-999.0,46,-99.99,,,0.00,Acu-Link.com,2013-04-22 17:27:00,
2013-04-22 12:42:00,76.6,54.9,30.08,ESE,112,3.8,-999.0,47,-99.99,,,0.00,Acu-Link.com,2013-04-22 17:42:00,
2013-04-22 12:58:00,78.1,55.0,30.08,NNE,22,3.1,-999.0,45,-99.99,,,0.00,Acu-Link.com,2013-04-22 17:58:00,
2013-04-22 13:13:00,77.4,53.7,30.07,ESE,112,6.3,-999.0,44,-99.99,,,0.00,Acu-Link.com,2013-04-22 18:13:00,
2013-04-22 13:28:00,77.9,55.4,30.06,South,180,4.7,-999.0,46,-99.99,,,0.00,Acu-Link.com,2013-04-22 18:28:00,
2013-04-22 13:44:00,76.6,53.1,30.05,NNE,22,2.7,-999.0,44,-99.99,,,0.00,Acu-Link.com,2013-04-22 18:44:00,
2013-04-22 13:59:00,78.1,53.7,30.05,South,180,2.7,-999.0,43,-99.99,,,0.00,Acu-Link.com,2013-04-22 18:59:00,
2013-04-22 14:14:00,77.7,53.4,30.04,SSE,157,6.3,-999.0,43,-99.99,,,0.00,Acu-Link.com,2013-04-22 19:14:00,
2013-04-22 14:30:00,77.2,51.0,30.03,South,180,4.7,-999.0,40,-99.99,,,0.00,Acu-Link.com,2013-04-22 19:30:00,
2013-04-22 14:45:00,78.6,54.2,30.03,SSE,157,5.1,-999.0,43,-99.99,,,0.00,Acu-Link.com,2013-04-22 19:45:00,
2013-04-22 15:00:00,79.7,54.6,30.02,NNE,22,2.7,-999.0,42,-99.99,,,0.00,Acu-Link.com,2013-04-22 20:00:00,
2013-04-22 15:15:00,78.4,52.1,30.01,ESE,112,3.8,-999.0,40,-99.99,,,0.00,Acu-Link.com,2013-04-22 20:15:00,
2013-04-22 15:31:00,78.6,52.9,30.00,North,0,2.2,-999.0,41,-99.99,,,0.00,Acu-Link.com,2013-04-22 20:31:00,
2013-04-22 15:46:00,78.4,51.4,30.00,ESE,112,5.8,-999.0,39,-99.99,,,0.00,Acu-Link.com,2013-04-22 20:46:00,
2013-04-22 16:01:00,80.2,53.0,29.98,NNE,22,4.3,-999.0,39,-99.99,,,0.00,Acu-Link.com,2013-04-22 21:01:00,
2013-04-22 16:17:00,78.4,52.8,29.97,SSE,157,8.3,-999.0,41,-99.99,,,0.00,Acu-Link.com,2013-04-22 21:17:00,
2013-04-22 16:32:00,78.6,52.9,29.97,South,180,2.7,-999.0,41,-99.99,,,0.00,Acu-Link.com,2013-04-22 21:32:00,
2013-04-22 16:47:00,79.0,52.6,29.97,ESE,112,5.8,-999.0,40,-99.99,,,0.00,Acu-Link.com,2013-04-22 21:47:00,
2013-04-22 17:03:00,79.3,54.2,29.96,SSW,202,3.8,-999.0,42,-99.99,,,0.00,Acu-Link.com,2013-04-22 22:03:00,
2013-04-22 17:18:00,78.6,53.6,29.96,ESE,112,4.3,-999.0,42,-99.99,,,0.00,Acu-Link.com,2013-04-22 22:18:00,
2013-04-22 17:33:00,78.6,52.3,29.96,ESE,112,6.3,-999.0,40,-99.99,,,0.00,Acu-Link.com,2013-04-22 22:33:00,
2013-04-22 17:48:00,82.0,53.9,29.96,ESE,112,3.1,-999.0,38,-99.99,,,0.00,Acu-Link.com,2013-04-22 22:48:00,
2013-04-22 18:04:00,82.8,55.9,29.97,ESE,112,3.1,-999.0,40,-99.99,,,0.00,Acu-Link.com,2013-04-22 23:04:00,
2013-04-22 18:19:00,81.3,54.0,29.95,ESE,112,3.8,-999.0,39,-99.99,,,0.00,Acu-Link.com,2013-04-22 23:19:00,
2013-04-22 18:34:00,79.9,54.7,29.95,South,180,1.6,-999.0,42,-99.99,,,0.00,Acu-Link.com,2013-04-22 23:34:00,
2013-04-22 18:50:00,78.8,55.0,29.95,ESE,112,3.8,-999.0,44,-99.99,,,0.00,Acu-Link.com,2013-04-22 23:50:00,
2013-04-22 19:05:00,77.5,56.9,29.95,SSE,157,2.7,-999.0,49,-99.99,,,0.00,Acu-Link.com,2013-04-23 00:05:00,
2013-04-22 19:20:00,76.5,57.0,29.94,SSE,157,1.6,-999.0,51,-99.99,,,0.00,Acu-Link.com,2013-04-23 00:20:00,
2013-04-22 19:36:00,72.9,57.7,29.94,SE,135,1.1,-999.0,59,-99.99,,,0.00,Acu-Link.com,2013-04-23 00:36:00,
2013-04-22 19:51:00,70.7,61.2,29.95,South,180,0.0,-999.0,72,-99.99,,,0.00,Acu-Link.com,2013-04-23 00:51:00,
2013-04-22 20:06:00,68.4,58.2,29.95,SE,135,2.7,-999.0,70,-99.99,,,0.00,Acu-Link.com,2013-04-23 01:06:00,
2013-04-22 20:21:00,67.6,57.5,29.95,SSE,157,2.2,-999.0,70,-99.99,,,0.00,Acu-Link.com,2013-04-23 01:21:00,
2013-04-22 20:36:00,66.7,58.2,29.96,SSE,157,3.1,-999.0,74,-99.99,,,0.00,Acu-Link.com,2013-04-23 01:36:00,
2013-04-22 20:52:00,65.7,58.6,29.96,SSE,157,2.2,-999.0,78,-99.99,,,0.00,Acu-Link.com,2013-04-23 01:52:00,
2013-04-22 21:07:00,65.7,58.6,29.96,SSE,157,1.6,-999.0,78,-99.99,,,0.00,Acu-Link.com,2013-04-23 02:07:00,
2013-04-22 21:22:00,64.9,59.0,29.97,South,180,2.2,-999.0,81,-99.99,,,0.00,Acu-Link.com,2013-04-23 02:22:00,
2013-04-22 21:37:00,63.9,58.9,29.97,South,180,0.0,-999.0,84,-99.99,,,0.00,Acu-Link.com,2013-04-23 02:37:00,
2013-04-22 21:53:00,63.3,58.7,29.97,South,180,0.0,-999.0,85,-99.99,,,0.00,Acu-Link.com,2013-04-23 02:53:00,
2013-04-22 22:08:00,62.8,58.8,29.97,SSE,157,0.0,-999.0,87,-99.99,,,0.00,Acu-Link.com,2013-04-23 03:08:00,
2013-04-22 22:23:00,61.7,58.4,29.98,NE,45,0.0,-999.0,89,-99.99,,,0.00,Acu-Link.com,2013-04-23 03:23:00,
2013-04-22 22:39:00,61.0,59.2,29.98,ENE,67,0.0,-999.0,94,-99.99,,,0.00,Acu-Link.com,2013-04-23 03:39:00,
2013-04-22 22:54:00,60.4,59.0,29.98,West,270,0.0,-999.0,95,-99.99,,,0.00,Acu-Link.com,2013-04-23 03:54:00,
2013-04-22 23:09:00,59.5,57.8,29.98,West,270,0.0,-999.0,94,-99.99,,,0.00,Acu-Link.com,2013-04-23 04:09:00,
2013-04-22 23:24:00,59.0,57.3,29.98,West,270,0.0,-999.0,94,-99.99,,,0.00,Acu-Link.com,2013-04-23 04:24:00,
2013-04-22 23:40:00,58.5,57.0,29.98,West,270,0.0,-999.0,95,-99.99,,,0.00,Acu-Link.com,2013-04-23 04:40:00,
2013-04-22 23:55:00,58.5,57.9,29.98,West,270,0.0,-999.0,98,-99.99,,,0.00,Acu-Link.com,2013-04-23 04:55:00,